Location: Alexandria
(38.8050°N, 77.0470°W)
Time: 09:42:17

Envisat - Pass Details

Date: 16 March 2018
Orbit: 764 x 766 km, 98.2° (Epoch: 22 March)

Event Time Altitude Azimuth Distance (km) Brightness Sun altitude
Rises 20:38:06 0° 168° (SSE) 3,216 6.0 -16.7°
Reaches altitude 10° 20:40:24 10° 169° (S) 2,293 5.2 -17.1°
Maximum altitude 20:45:28 82° 257° (WSW) 777 3.0 -18.1°
Drops below altitude 10° 20:50:34 10° 345° (NNW) 2,308 5.8 -19.0°
Sets 20:52:53 0° 347° (NNW) 3,239 6.6 -19.5°
